Content
SEND FEEDBACK

Daily
Averages
Monthly
Summary
United States of America

PHENIX CITY, ALABAMA


Home > North America > United States > Alabama
Elevation: 399 feet     Latitude: 32 31N     Longitude: 084 57W

WEATHER
 
SELECT A DAY
Number of Records: 203,270;   Date Range: 1/1/95 - 7/29/14
 
SHARE

PRINT THIS DATA

[ ← Previous Day ]
WEATHER ALMANAC - FEBRUARY 13, 2013
[ Next Day → ]
[ °C ]   °F
Weather ElementAverageHighLow
Temperature51.6 °F55.4 °F (8:09 am)45 °F (11:51 pm)
Dewpoint46.9 °F53.6 °F (7:28 am)36 °F (10:51 pm)
Humidity84.4 %100 % (6:10 am)68 % (9:51 pm)
Barometer29.85 in29.99 in (10:51 pm)29.73 in (4:51 am)
Wind Speed7.9 mph15 mph (9:51 am)
Wind Gust23 mph (10:51 am)
Weather ElementAverage
Visibility8 mi
Wind DirectionSW (225.8 °)

Weather ElementTotal
Precipitation0.33 in
Heating Degree Days14.8 (Base 65)
Growing Degree Days0.2 (Base 50)
Averaged from 40 records on February 13, 2013
WEATHER CONDITIONS BREAKOUT
WIND DIRECTION BREAKOUT
WEATHER BY HOUR - FEBRUARY 13, 2013
[ °C ]   °F
Local TimeTemperatureDewpointHumidityBarometerVisibilityWind DirectionWind SpeedGust SpeedPrecipitationEventsConditions
12:06 AM50.0 °F48.2 °F94 %29.83 in3.0 miEast (90°)4.6 mph0.09 inRainRain
12:51 AM51.1 °F48.9 °F92 %29.81 in10.0 miEast (80°)6.9 mph0.10 inOvercast
1:16 AM51.8 °F48.2 °F88 %29.80 in6.0 miSE (130°)6.9 mph0.01 inRainLight Rain
1:51 AM51.1 °F48.9 °F92 %29.80 in10.0 miESE (110°)6.9 mph0.01 inOvercast
1:59 AM51.8 °F48.2 °F88 %29.79 in10.0 miESE (120°)3.5 mph0.00 inRainLight Rain
2:32 AM51.8 °F48.2 °F88 %29.79 in10.0 miESE (110°)6.9 mph0.00 inOvercast
2:51 AM51.1 °F48.9 °F92 %29.78 in10.0 miESE (120°)5.8 mph0.00 inOvercast
3:51 AM51.1 °F48.9 °F92 %29.76 in5.0 miSE (130°)6.9 mph0.00 inOvercast
4:51 AM51.1 °F50.0 °F96 %29.73 in3.0 miSE (130°)5.8 mphOvercast
5:26 AM51.8 °F50.0 °F94 %29.77 in1.8 miCalmOvercast
5:51 AM52.0 °F51.1 °F97 %29.78 in1.8 miCalm0.01 inOvercast
6:01 AM51.8 °F50.0 °F94 %29.78 in2.0 miSE (140°)3.5 mphOvercast
6:10 AM51.8 °F51.8 °F100 %29.78 in1.8 miSouth (180°)3.5 mphOvercast
6:51 AM52.0 °F51.1 °F97 %29.78 in1.0 miCalmMist
7:28 AM53.6 °F53.6 °F100 %29.80 in3.0 miWest (270°)8.1 mphOvercast
7:51 AM55.0 °F52.0 °F89 %29.81 in10.0 miWest (280°)12.7 mphOvercast
8:09 AM55.4 °F51.8 °F88 %29.82 in10.0 miWNW (290°)11.5 mphOvercast
8:20 AM55.4 °F51.8 °F88 %29.81 in10.0 miWest (270°)6.9 mphMostly Cloudy
8:38 AM55.4 °F51.8 °F88 %29.83 in10.0 miWNW (290°)9.2 mphMostly Cloudy
8:51 AM55.0 °F51.1 °F86 %29.82 in10.0 miWest (260°)9.2 mphMostly Cloudy
9:51 AM55.0 °F48.9 °F80 %29.87 in10.0 miWNW (290°)15.0 mph19.6 mphMostly Cloudy
9:58 AM55.4 °F48.2 °F77 %29.87 in10.0 miWest (280°)11.5 mph19.6 mphMostly Cloudy
10:51 AM55.0 °F48.0 °F77 %29.86 in10.0 miWNW (300°)11.5 mph23.0 mphMostly Cloudy
11:51 AM55.0 °F46.0 °F72 %29.87 in10.0 miWNW (290°)13.8 mph20.7 mph0.00 inRainLight Rain
12:51 PM54.0 °F45.0 °F72 %29.87 in10.0 miWNW (300°)12.7 mph0.00 inRainLight Rain
1:51 PM51.1 °F46.0 °F83 %29.84 in3.0 miWSW (250°)11.5 mph0.01 inRainLight Rain
2:28 PM51.8 °F46.4 °F82 %29.87 in10.0 miWest (280°)10.4 mph0.05 inRainLight Rain
2:51 PM51.1 °F46.9 °F86 %29.87 in10.0 miWNW (290°)9.2 mph0.05 inOvercast
2:52 PM51.8 °F46.4 °F82 %29.86 in10.0 miWest (280°)6.9 mphOvercast
3:01 PM50.0 °F46.4 °F87 %29.85 in10.0 miWest (280°)8.1 mphOvercast
3:51 PM50.0 °F45.0 °F83 %29.86 in10.0 miWNW (290°)9.2 mphMostly Cloudy
4:51 PM50.0 °F45.0 °F83 %29.88 in10.0 miWest (270°)9.2 mphOvercast
5:51 PM50.0 °F41.0 °F71 %29.91 in10.0 miNW (310°)13.8 mphOvercast
6:51 PM48.9 °F41.0 °F74 %29.92 in10.0 miNW (310°)9.2 mphMostly Cloudy
7:51 PM48.9 °F41.0 °F74 %29.94 in10.0 miNW (320°)10.4 mphPartly Cloudy
8:51 PM48.9 °F39.9 °F71 %29.96 in10.0 miNW (320°)8.1 mphOvercast
9:20 PM48.2 °F39.2 °F71 %29.96 in10.0 miNNW (330°)9.2 mphOvercast
9:51 PM48.0 °F37.9 °F68 %29.98 in10.0 miNorth (350°)9.2 mph17.3 mphPartly Cloudy
10:51 PM46.0 °F36.0 °F68 %29.99 in10.0 miNorth (350°)4.6 mphClear
11:51 PM45.0 °F36.0 °F71 %29.99 in10.0 miNNW (340°)4.6 mphClear
Hourly data recorded from KCSG, located miles away from Phenix City, Alabama







STORIES FROM OUR PARTNERS